Weather in Melovoy

Russia / Ulyanovsk Oblast     54°07′05″N   48°19′34″E
temp.,
°C
wind,
m/s
gust,
m/s
humid.,
%
clouds,
%
prec.,
mm/h
press.,
hPa
HPBL,
m
25 january, tue
tue2501:00−19sse1110056 0.0 10359
04:00−19s229710 0.0 103412
07:00−19sse219835 0.0 103210
10:00−17s239732 0.0 103148
13:00−10sse358698 0.0 1029201
16:00−11sse369181 0.0 1027169
19:00−16sse369578 0.0 102673
22:00−14sse389599 0.0 1025158
26 january, wed
wed2601:00−14s369784 0.0 1023112
04:00−13s269799 0.1 1022145
07:00−12s369667 0.1 1020130
10:00−12ssw269677 0.1 1020153
13:00−9ssw349398 0.0 1019252
16:00−10ssw2296100 0.1 101857
19:00−12ssw2298100 0.0 101935
22:00−16sw2210097 0.1 101918
27 january, thu
thu2701:00−19sw2210097 0.0 102024
04:00−20ssw3410094 0.0 102046
07:00−17ssw3599100 0.0 102074
10:00−14ssw3896100 0.0 1021170
13:00−10ssw4993100 0.0 1020289
16:00−9ssw4109470 0.0 1020345
19:00−11s499647 0.0 1020141
22:00−12s4109770 0.1 1020136
28 january, fri
fri2801:00−11s4109780 0.0 1020159
04:00−12s499764 0.1 1019140
07:00−13s4999100 0.0 1018130
10:00−11s41096100 0.0 1018209
13:00−8s5992100 0.0 1017293
16:00−8sse399199 0.0 1016268
19:00−14sse249678 0.0 101652
22:00−15sse259967 0.0 101563
29 january, sat
sat2901:00−15sse3699100 0.0 101590
04:00−14sse379992 0.0 1013105
07:00−11sse41196100 0.0 1012228
10:00−10s51494100 0.4 1011338
13:00−7s6129367 0.2 1010319
16:00−6s5119487 0.2 1009300
19:00−6s5119585 0.0 1009244
22:00−5ssw5139570 0.1 1008316